Location: *
(34.6780°N, 135.8310°E)
Time: 22:08:45
(UTC+00:00)

MSX - Pass Details

Date: 18 October 2019
Orbit: 894 x 906 km, 98.7° (Epoch: 13 November)

Event Time Altitude Azimuth Distance (km) Brightness Sun altitude
Rises 18:46:54 0° 15° (NNE) 3,513 7.2 -29.1°
Reaches altitude 10° 18:49:19 10° 17° (NNE) 2,570 6.5 -28.6°
Maximum altitude 18:55:02 73° 102° (ESE) 936 3.9 -27.4°
Enters shadow 18:59:38 16° 186° (S) 2,137 5.7 -26.5°
